Temperature
13 13 13 13 13 13 13 13 13 13 13 13 13 12 12 12 12 12 12 13 13 13 13 13 13 13 13 13 13 13 13 12 12 12 12 12 12 12 12 12 12 12 11
13 13 13 13 13 13 13 13 13 13 13 13 12 12 12 12 12 12 12 12 12 12 12 12 12 12 12 12 12 12 12 12 12 12 12 12 12 12 12 11 11 11 11
13 13 13 13 13 13 13 13 12 12 12 12 12 12 12 12 12 12 12 12 12 12 12 12 12 12 12 12 12 12 12 12 12 12 12 11 11 11 11 11 11 11 11
12 12 12 12 13 13 12 12 12 12 12 12 12 12 12 12 12 12 12 12 12 12 12 12 12 12 12 12 12 12 12 12 12 12 11 11 11 11 11 11 11 11 10
12 12 12 12 12 12 12 12 12 12 11 12 12 11 11 11 11 12 12 12 12 12 11 12 12 12 12 12 12 12 12 12 11 11 11 11 11 11 11 11 11 10 10
12 12 12 12 12 12 12 12 11 11 11 11 11 11 11 11 11 11 11 11 11 11 11 11 11 12 12 12 12 11 11 11 11 11 11 11 11 10 10 10 10 10 10
11 11 11 11 11 11 11 11 11 11 11 11 11 10 10 11 11 11 11 11 11 11 11 11 11 11 11 11 11 11 11 11 11 11 11 11 10 10 10 10 10 10 10
11 11 11 11 11 11 11 11 11 11 11 11 10 10 9 10 10 10 11 11 11 11 11 11 11 11 11 11 11 11 11 11 10 10 10 10 10 10 10 10 10 9 9
10 10 10 10 10 10 10 11 11 10 10 10 10 10 10 10 9 10 10 10 10 10 11 11 11 11 10 10 10 10 10 10 10 10 10 10 10 10 9 9 9 9 9
10 10 10 10 10 10 10 10 10 10 10 10 10 10 10 10 10 9 9 10 10 10 10 10 10 10 10 10 10 10 10 10 10 10 10 9 9 9 9 9 9 9 9
10 9 9 9 10 10 10 10 10 10 10 10 10 10 10 10 10 10 9 9 9 10 10 10 10 10 10 9 10 10 10 10 9 9 9 9 9 9 9 9 8 8 8
9 9 9 9 9 9 9 9 10 10 9 9 9 10 10 10 10 10 9 9 9 9 9 9 9 9 9 9 9 9 9 9 9 9 9 9 8 8 8 8 8 8 8
9 9 9 9 9 9 9 9 9 9 9 9 9 9 9 9 9 10 9 9 8 8 9 9 9 9 9 9 9 9 9 9 9 9 9 8 8 8 8 8 8 8 8
8 8 8 8 8 8 8 8 8 8 8 8 9 9 9 9 9 9 9 9 8 8 8 8 8 8 8 8 8 8 8 8 8 8 8 8 8 8 8 8 7 7 7
8 8 8 8 8 8 8 8 8 8 8 8 8 8 8 8 8 8 8 8 8 7 7 7 7 7 8 8 8 8 8 8 8 8 7 7 7 7 7 7 7 7 7
7 7 7 7 7 7 7 7 7 7 7 7 7 7 8 8 8 8 8 8 8 7 7 7 7 7 7 7 7 7 7 7 7 7 7 7 7 7 7 7 6 6 6
7 7 7 7 7 7 7 7 6 7 7 7 7 7 7 7 7 7 7 7 7 7 7 7 7 6 6 7 7 7 7 7 7 6 6 6 6 6 6 6 6 6 5
6 6 6 6 6 6 6 6 6 6 6 6 6 6 6 7 6 7 7 7 6 6 6 6 6 6 6 6 6 6 6 6 6 6 6 6 6 6 5 5 5 5 5
6 6 6 6 6 6 6 6 6 6 6 6 6 6 6 6 6 6 6 6 6 6 6 6 5 5 5 5 5 5 5 5 5 5 5 5 5 5 5 5 4 4 4
5 5 5 5 5 5 5 5 5 5 5 5 5 5 5 5 5 5 5 5 5 5 5 5 5 5 5 4 4 4 4 4 4 4 4 4 4 4 4 4 4 4 4
5 5 5 5 5 5 5 5 5 5 5 5 5 4 4 5 5 5 5 5 5 4 4 4 4 4 4 4 4 4 4 3 3 3 3 3 3 3 3 3 3 3 3
4 4 4 4 4 4 4 4 4 4 4 4 4 4 4 4 4 4 4 4 4 4 4 3 3 3 3 3 3 3 3 3 2 2 2 2 2 2 2 2 2 2 2
4 4 3 4 3 3 3 3 4 3 3 3 3 3 3 3 3 3 3 3 3 3 3 3 3 3 3 3 3 2 2 2 2 2 2 2 2 2 2 2 2 2 2
3 3 3 3 3 3 3 3 3 3 3 3 3 3 3 2 2 2 2 2 2 2 2 2 2 2 2 2 2 2 1 1 1 1 1 1 1 1 1 1 1 1 1
2 2 2 2 2 2 2 2 2 2 2 2 2 2 2 2 2 2 2 2 1 1 2 2 2 2 2 1 1 1 1 1 0 1 0 0 0 0 0 0 0 0 1
2 2 2 2 2 2 2 2 2 1 1 1 1 1 1 1 1 1 1 1 1 1 1 1 1 1 1 1 1 0 0 -0 -0 -0 -0 -1 -1 -1 -1 -1 -0 -0 -0
Wind_Speed
5 5 5 5 6 6 7 7 7 8 7 7 6 6 5 5 4 4 4 5 3 3 3 3 3 3 4 5 5 5 5 4 4 4 4 4 5 5 5 5 5 5 5
6 5 5 5 5 6 6 6 7 7 6 5 5 5 4 4 4 4 3 4 4 3 2 2 3 3 4 5 5 5 5 4 3 3 3 3 4 4 4 4 4 4 4
7 6 5 5 5 6 6 6 6 6 5 5 5 4 3 4 4 4 3 3 3 3 2 2 3 3 3 4 4 4 4 4 3 3 3 3 3 4 4 3 3 3 3
8 7 5 5 6 6 6 5 5 5 5 5 4 4 3 3 3 3 3 3 3 2 3 2 3 3 3 3 3 4 4 4 4 4 3 3 3 3 4 3 3 4 4
8 7 5 5 7 6 5 5 5 5 5 5 4 4 3 3 3 3 3 3 3 3 2 3 3 3 2 3 4 4 4 4 4 3 3 2 2 2 3 2 2 2 3
8 7 6 6 7 6 5 6 6 5 5 5 4 3 2 3 2 3 3 3 2 3 3 3 3 3 3 3 3 4 4 4 3 3 2 2 1 1 1 2 1 1 2
7 7 6 6 6 6 6 7 6 6 5 5 4 3 2 2 2 2 2 2 2 3 3 3 2 2 3 3 3 3 3 3 3 3 2 1 1 1 1 2 1 1 1
7 7 7 6 6 6 7 7 7 5 5 5 5 4 3 3 2 2 3 3 3 3 3 3 2 2 2 2 3 3 2 2 2 2 2 1 0 1 2 2 2 2 2
7 6 7 6 6 6 6 7 7 7 6 6 5 4 4 5 4 3 3 3 3 3 2 2 2 2 2 2 2 3 2 2 2 2 2 1 1 1 2 3 3 3 3
7 7 6 6 6 5 6 7 7 6 8 7 5 4 3 2 3 3 3 3 3 3 3 3 2 2 2 2 1 1 2 2 2 2 2 2 2 2 2 3 3 3 3
6 6 7 6 6 5 6 6 6 6 6 7 6 4 3 2 3 3 3 4 3 3 3 3 2 2 2 1 1 1 1 2 2 3 3 2 2 2 3 3 3 4 4
5 6 6 6 6 5 6 6 5 6 6 6 5 5 5 4 4 4 4 5 4 3 3 2 2 2 2 2 1 1 2 2 2 2 3 3 3 3 4 4 4 4 5
5 6 6 6 5 5 5 5 5 5 6 6 5 4 4 4 3 3 3 3 3 2 2 3 2 2 2 2 2 2 2 2 2 2 3 3 3 3 3 3 4 5 5
5 6 6 5 5 5 5 5 4 4 4 4 4 4 3 3 3 3 3 3 3 2 3 3 2 3 3 2 2 2 2 2 2 2 3 3 3 2 2 3 4 4 5
5 6 6 5 5 4 5 5 4 4 4 3 3 3 2 2 2 2 3 4 4 3 3 3 2 2 2 2 2 2 2 1 2 3 3 3 2 2 2 3 4 4 5
6 6 6 6 5 5 5 4 4 4 4 3 3 3 3 1 1 1 2 2 2 3 2 2 2 1 1 1 1 2 2 2 3 3 3 3 2 3 3 3 4 5 5
7 7 6 6 6 5 5 5 5 5 4 4 3 3 3 3 2 2 1 1 1 2 3 2 1 1 1 1 1 1 1 2 2 3 3 3 3 3 4 4 5 5 6
6 6 6 6 6 6 6 6 6 5 5 5 4 4 4 3 3 2 2 2 1 1 2 3 2 1 1 2 1 1 2 2 3 2 3 3 4 4 4 5 6 6 7
6 6 6 6 6 6 5 5 5 5 5 5 5 5 4 4 3 2 2 2 1 1 1 2 2 1 1 1 1 1 2 2 3 3 3 3 4 5 5 6 6 7 7
7 7 6 6 5 5 5 5 5 5 5 4 4 3 3 4 4 3 3 2 2 2 2 2 2 2 1 1 1 1 2 2 2 3 3 4 5 5 6 6 6 7 8
7 6 6 6 5 5 5 6 5 5 5 4 3 3 3 3 3 3 2 3 2 2 2 2 2 2 1 1 2 2 2 2 3 2 3 4 4 5 5 5 6 8 9
6 6 6 6 5 4 5 6 6 5 5 5 4 3 2 3 4 3 3 2 3 3 3 3 3 3 3 3 2 2 2 3 3 2 4 5 4 4 5 5 7 10 11
6 6 6 5 5 6 7 7 6 4 4 4 4 3 3 3 3 3 3 2 1 1 3 4 4 4 4 3 3 3 3 4 4 3 4 5 4 5 5 7 9 10 11
5 5 5 5 5 5 7 7 7 4 3 3 3 4 4 4 3 3 2 2 1 2 2 3 3 3 3 3 4 4 4 4 4 3 3 4 4 5 6 8 10 10 11
5 4 4 5 5 5 7 7 6 4 3 3 3 3 4 4 4 4 3 3 2 2 1 1 2 2 3 3 3 2 3 3 4 4 3 3 4 6 6 6 8 10 12
5 4 4 4 5 5 6 7 7 4 4 3 2 3 4 4 5 5 4 4 4 3 2 1 1 2 2 2 3 3 4 4 4 3 2 3 4 4 4 4 5 8 9
Wind_Direction
181 178 177 176 178 176 178 178 176 175 177 174 176 179 176 176 169 156 133 121 133 138 129 134 142 142 143 139 133 125 115 104 101 90 77 66 58 54 53 49 50 49 49
186 183 183 181 180 181 182 182 178 177 178 176 176 179 179 176 175 170 156 136 130 135 151 159 158 143 143 143 137 132 123 121 119 104 90 73 62 57 50 43 46 44 39
190 187 187 185 181 181 180 179 176 177 174 174 176 177 176 180 177 173 167 157 143 131 131 149 141 125 132 138 138 140 134 132 127 111 99 83 69 58 52 51 46 42 37
193 191 190 188 181 178 178 179 179 177 177 178 179 177 175 175 180 173 167 165 163 159 140 140 146 137 138 142 137 131 127 124 115 104 96 89 75 58 44 49 49 47 43
195 194 195 188 181 178 179 179 183 181 179 176 175 174 175 176 178 173 176 173 180 190 185 149 138 132 132 142 140 136 129 125 119 112 104 95 82 56 39 40 43 44 38
196 196 193 190 185 181 181 181 180 181 181 172 162 159 168 177 176 184 193 184 182 190 195 181 167 138 121 134 142 133 131 131 129 118 111 96 62 26 17 14 16 22 17
196 197 191 190 191 189 185 183 178 177 176 167 157 152 144 162 185 193 194 190 184 184 183 185 187 171 148 139 144 136 131 134 136 130 113 102 37 354 339 338 315 316 328
196 199 193 191 190 189 186 185 179 178 181 184 181 176 185 190 198 211 202 200 199 179 180 187 181 169 157 152 143 147 150 162 164 158 165 185 279 314 318 316 307 306 312
196 198 197 193 191 191 191 189 186 186 187 193 201 201 197 203 180 181 202 204 200 193 185 180 176 173 172 164 155 157 163 182 204 206 213 224 274 301 312 314 315 306 302
195 195 195 193 191 191 192 192 192 196 195 195 202 223 242 198 184 172 179 198 203 204 198 187 179 174 174 157 137 130 166 196 219 239 247 249 265 280 296 307 314 321 320
191 189 190 190 193 194 193 190 188 195 201 203 200 195 194 201 214 195 189 183 191 210 215 208 192 193 188 180 213 176 180 216 234 241 253 259 280 291 302 315 313 309 308
188 187 189 190 193 194 193 191 190 194 198 203 204 204 198 198 203 204 205 194 194 197 203 210 210 204 198 204 247 152 177 207 243 254 267 270 274 289 298 304 305 306 303
189 190 189 191 191 191 188 185 192 195 196 196 201 205 208 215 203 198 185 190 197 193 197 214 225 217 212 221 244 203 194 209 233 258 268 275 274 285 304 319 322 320 317
193 189 189 187 184 186 184 182 185 190 196 199 203 202 198 202 196 186 179 180 188 200 210 212 214 223 220 226 240 201 218 217 242 266 274 279 277 282 287 305 312 315 318
190 187 185 185 185 185 183 182 184 182 180 186 194 195 201 199 194 193 186 191 193 203 214 202 197 219 235 238 230 210 227 236 250 260 271 278 272 280 284 301 306 311 310
186 183 182 183 186 186 187 188 187 184 182 183 183 183 187 189 186 188 183 198 218 216 222 205 205 214 264 263 235 234 239 247 242 249 265 271 274 273 274 292 300 303 301
184 183 183 183 184 186 189 190 190 184 179 178 176 180 190 187 175 176 166 166 190 209 218 229 218 209 256 250 240 258 277 282 282 267 268 266 267 267 275 283 290 291 292
184 183 184 186 188 188 189 188 186 184 184 184 185 187 193 178 175 182 167 164 186 212 214 221 236 229 262 241 244 293 329 314 300 287 268 259 258 264 275 280 282 285 287
180 181 181 186 188 186 186 188 186 183 184 189 190 191 193 180 179 185 177 176 176 175 215 217 232 254 265 239 257 285 293 297 301 284 263 261 269 276 280 278 279 282 285
179 181 181 181 184 186 186 181 177 177 181 187 188 191 193 186 186 184 179 183 176 170 180 193 213 237 259 286 268 270 282 286 294 295 278 282 284 283 278 276 277 280 285
179 180 178 176 176 183 185 178 177 179 182 181 184 187 185 175 177 182 181 188 183 188 194 200 217 225 227 248 255 273 278 293 297 292 289 293 290 284 283 282 279 281 284
174 175 180 173 172 179 166 169 177 180 184 187 188 183 170 160 151 151 154 171 188 199 210 219 230 230 238 245 257 262 272 288 292 293 293 290 288 284 292 287 285 286 285
168 170 174 173 173 168 155 155 159 174 181 186 185 179 178 170 166 170 160 164 187 236 247 240 233 242 248 244 242 249 255 268 277 285 285 281 284 285 294 287 283 280 282
164 168 171 173 169 164 156 157 156 166 171 181 185 184 187 187 181 171 166 178 213 243 250 247 244 258 264 259 246 253 257 270 286 286 277 275 286 288 295 288 277 274 280
161 165 169 167 169 169 159 160 159 163 167 178 191 195 199 199 181 173 180 188 212 243 272 245 271 290 292 274 247 237 243 252 274 280 272 267 286 298 292 284 278 278 282
160 159 161 169 175 180 170 168 171 174 176 179 187 202 203 205 197 194 203 206 222 239 239 248 270 288 277 249 223 239 244 248 270 271 259 269 286 305 295 280 287 291 288
Height
1536 1537 1539 1541 1543 1545 1547 1548 1550 1551 1553 1555 1556 1558 1559 1560 1561 1562 1562 1563 1563 1564 1565 1565 1565 1565 1565 1565 1565 1565 1565 1564 1564 1564 1563 1563 1562 1561 1561 1560 1560 1559 1559
1533 1535 1537 1539 1541 1543 1545 1547 1548 1550 1552 1553 1555 1556 1558 1559 1560 1561 1562 1562 1562 1563 1564 1564 1564 1565 1565 1565 1565 1564 1564 1564 1564 1563 1563 1562 1562 1561 1560 1560 1559 1559 1558
1531 1533 1535 1537 1539 1541 1542 1545 1547 1548 1550 1552 1553 1555 1556 1558 1559 1560 1560 1561 1562 1562 1563 1563 1564 1564 1564 1564 1564 1564 1564 1564 1563 1563 1562 1562 1561 1561 1560 1559 1559 1558 1558
1528 1530 1532 1534 1536 1538 1540 1542 1544 1546 1548 1550 1552 1553 1554 1556 1557 1558 1559 1560 1560 1561 1561 1562 1562 1563 1563 1563 1563 1563 1563 1563 1563 1562 1562 1561 1561 1560 1559 1559 1558 1558 1557
1525 1527 1529 1531 1534 1536 1538 1540 1542 1544 1546 1548 1550 1551 1553 1554 1555 1556 1557 1558 1559 1559 1560 1561 1561 1562 1562 1562 1562 1562 1562 1562 1562 1561 1561 1560 1560 1559 1559 1558 1557 1557 1556
1522 1524 1526 1528 1531 1533 1535 1537 1540 1542 1544 1546 1548 1550 1551 1552 1553 1554 1555 1556 1557 1558 1558 1559 1559 1560 1560 1561 1561 1561 1561 1561 1560 1560 1560 1559 1559 1558 1557 1557 1556 1556 1555
1519 1521 1523 1525 1527 1530 1532 1534 1536 1539 1541 1544 1546 1547 1549 1550 1550 1551 1552 1553 1554 1555 1556 1557 1557 1558 1558 1559 1559 1559 1559 1559 1559 1559 1558 1558 1557 1557 1556 1555 1555 1554 1554
1516 1518 1520 1522 1524 1526 1529 1531 1533 1535 1538 1541 1543 1545 1547 1549 1548 1549 1550 1551 1552 1553 1554 1555 1555 1556 1556 1556 1557 1557 1557 1557 1557 1557 1556 1556 1556 1555 1554 1554 1553 1553 1552
1512 1514 1516 1519 1521 1523 1525 1527 1530 1532 1534 1537 1539 1542 1543 1544 1545 1546 1547 1548 1549 1550 1551 1552 1552 1553 1554 1554 1554 1555 1555 1555 1555 1555 1555 1554 1554 1553 1552 1552 1551 1551 1550
1509 1511 1513 1515 1517 1520 1522 1524 1526 1529 1531 1533 1535 1537 1539 1540 1542 1543 1544 1545 1546 1547 1548 1549 1550 1550 1551 1551 1552 1552 1552 1553 1552 1552 1552 1552 1551 1551 1550 1550 1549 1548 1548
1506 1508 1510 1512 1514 1516 1518 1521 1523 1525 1527 1530 1531 1533 1535 1537 1538 1540 1541 1542 1543 1544 1545 1546 1546 1547 1548 1549 1549 1549 1549 1549 1549 1549 1550 1549 1549 1548 1548 1547 1546 1545 1545
1502 1504 1506 1509 1511 1513 1515 1517 1519 1521 1523 1526 1528 1530 1532 1533 1535 1536 1537 1538 1539 1540 1541 1542 1543 1544 1545 1546 1546 1546 1546 1546 1546 1546 1546 1546 1546 1545 1545 1544 1543 1542 1542
1499 1501 1503 1505 1507 1509 1511 1513 1516 1518 1520 1522 1524 1526 1528 1530 1532 1533 1534 1534 1536 1537 1538 1539 1540 1541 1542 1543 1543 1543 1543 1543 1543 1543 1543 1543 1543 1542 1541 1540 1540 1539 1538
1496 1498 1500 1502 1504 1507 1508 1510 1512 1514 1516 1518 1520 1522 1524 1526 1528 1529 1531 1532 1533 1534 1535 1536 1537 1538 1539 1539 1539 1540 1540 1540 1540 1540 1540 1539 1539 1538 1537 1537 1536 1535 1534
1492 1495 1497 1499 1501 1503 1505 1507 1509 1511 1513 1515 1517 1518 1521 1522 1524 1526 1527 1529 1530 1531 1532 1532 1533 1534 1535 1535 1535 1536 1536 1536 1536 1536 1536 1535 1535 1534 1533 1533 1532 1531 1530
1489 1491 1494 1496 1498 1500 1502 1504 1505 1507 1509 1511 1513 1515 1517 1519 1521 1522 1524 1525 1526 1527 1528 1529 1529 1531 1531 1531 1531 1532 1532 1532 1532 1532 1532 1531 1531 1530 1529 1529 1528 1527 1526
1486 1488 1490 1493 1495 1497 1499 1500 1502 1504 1506 1508 1509 1511 1513 1515 1517 1519 1520 1521 1523 1524 1524 1525 1526 1527 1527 1528 1528 1528 1528 1528 1528 1528 1528 1527 1527 1526 1525 1525 1524 1523 1521
1483 1485 1487 1489 1491 1494 1495 1497 1499 1501 1502 1504 1506 1508 1510 1512 1513 1515 1516 1518 1519 1521 1521 1521 1522 1523 1523 1524 1524 1524 1524 1524 1524 1523 1523 1523 1522 1521 1521 1520 1519 1518 1517
1479 1482 1484 1486 1488 1490 1492 1494 1496 1497 1499 1501 1503 1505 1506 1508 1509 1511 1512 1514 1515 1516 1517 1518 1519 1520 1520 1520 1520 1521 1521 1521 1520 1519 1519 1518 1518 1517 1516 1515 1514 1513 1512
1476 1478 1480 1483 1485 1487 1489 1490 1492 1494 1496 1498 1499 1501 1503 1504 1505 1507 1508 1510 1512 1513 1514 1515 1516 1517 1517 1517 1517 1517 1517 1517 1516 1515 1515 1514 1513 1512 1512 1511 1510 1509 1507
1472 1475 1477 1479 1481 1484 1485 1487 1489 1491 1493 1494 1496 1498 1500 1501 1502 1504 1505 1507 1508 1510 1511 1512 1512 1513 1513 1513 1513 1513 1513 1512 1512 1511 1511 1510 1509 1508 1507 1506 1505 1504 1502
1469 1472 1474 1476 1478 1480 1482 1484 1486 1488 1490 1491 1493 1494 1496 1497 1499 1501 1502 1504 1505 1506 1507 1508 1508 1509 1509 1510 1510 1510 1509 1508 1507 1508 1507 1505 1505 1503 1502 1501 1500 1499 1497
1466 1468 1471 1473 1475 1477 1479 1481 1483 1485 1486 1488 1490 1491 1493 1494 1496 1497 1499 1500 1502 1503 1504 1505 1505 1505 1505 1506 1506 1506 1506 1505 1504 1503 1503 1501 1500 1499 1498 1496 1495 1494 1492
1463 1465 1468 1470 1472 1474 1476 1479 1480 1482 1483 1485 1487 1489 1491 1492 1493 1494 1496 1497 1498 1499 1500 1501 1501 1501 1502 1502 1502 1502 1501 1501 1500 1499 1499 1496 1495 1494 1492 1491 1489 1488 1487
1460 1462 1465 1467 1469 1472 1474 1476 1478 1479 1481 1483 1484 1486 1488 1489 1490 1492 1493 1494 1494 1496 1497 1497 1497 1497 1498 1498 1497 1497 1497 1496 1495 1494 1494 1493 1490 1488 1487 1485 1484 1483 1481
1458 1460 1462 1465 1467 1469 1472 1474 1476 1477 1478 1480 1482 1483 1485 1486 1488 1489 1490 1491 1491 1492 1493 1493 1493 1493 1493 1493 1493 1493 1492 1492 1490 1489 1489 1488 1486 1485 1481 1480 1479 1478 1475